Tracking 17938 objects as of 23-February-2017
HD Live streaming from Space Station
objects crossing your sky now

SL-16 DEB

Track SL-16 DEB now!
10-day predictions


NORAD ID: 36031
Int'l Code: 1996-051N
Perigee: 753.6 km
Apogee: 777.7 km
Inclination: 70.9 °
Period: 100.0 minutes
Semi major axis: 7136 km
RCS: 0.0057 m2 (small)
Launch date: September 4, 1996
Source: Commonwealth of Independent States (former USSR) (CIS)
Launch site: TYURATAM MISSILE AND SPACE COMPLEX (TTMTR)

Note: This is SATELLITE DEBRIS
Your satellite tracking list
Your tracking list is empty





NASA's NSSDC Master Catalog

Two Line Element Set (TLE):
1 36031U 96051N   17054.44484307  .00003489  00000-0  11053-2 0  9991
2 36031  70.8537 188.8955 0016861 272.6744 144.6551 14.40695642382889
Source of the keplerian elements: AFSPC